Time,TemperatureF,DewpointF,PressureIn,WindDirection,WindDirectionDegrees,WindSpeedMPH,WindSpeedGustMPH,Humidity,HourlyPrecipIn,Conditions,Clouds,dailyrainin,SoftwareType,DateUTC
2017-02-27 00:04:00,32.7,22.0,30.14,SSW,209,7.0,12.0,64,0.00,,,0.00,weatherlink.com 1.10,2017-02-27 05:04:00,
2017-02-27 00:20:00,32.6,22.0,30.14,South,171,6.0,11.0,64,0.00,,,0.00,weatherlink.com 1.10,2017-02-27 05:20:00,
2017-02-27 00:35:00,32.8,22.0,30.14,South,175,2.0,11.0,64,0.00,,,0.00,weatherlink.com 1.10,2017-02-27 05:35:00,
2017-02-27 00:50:00,33.0,22.0,30.14,South,190,7.0,11.0,64,0.00,,,0.00,weatherlink.com 1.10,2017-02-27 05:50:00,
2017-02-27 01:05:00,33.3,22.0,30.14,SW,223,10.0,11.0,64,0.00,,,0.00,weatherlink.com 1.10,2017-02-27 06:05:00,
2017-02-27 01:20:00,33.4,22.0,30.14,South,188,5.0,10.0,64,0.00,,,0.00,weatherlink.com 1.10,2017-02-27 06:20:00,
2017-02-27 01:35:00,33.7,22.0,30.14,SW,218,6.0,11.0,63,0.00,,,0.00,weatherlink.com 1.10,2017-02-27 06:35:00,
2017-02-27 01:50:00,33.8,23.0,30.15,SSE,157,8.0,9.0,64,0.00,,,0.00,weatherlink.com 1.10,2017-02-27 06:50:00,
2017-02-27 02:05:00,33.9,22.0,30.15,South,171,9.0,12.0,63,0.00,,,0.00,weatherlink.com 1.10,2017-02-27 07:05:00,
2017-02-27 02:20:00,34.3,22.0,30.15,SW,217,9.0,11.0,62,0.00,,,0.00,weatherlink.com 1.10,2017-02-27 07:20:00,
2017-02-27 02:35:00,34.4,22.0,30.15,SSW,204,8.0,16.0,62,0.00,,,0.00,weatherlink.com 1.10,2017-02-27 07:35:00,
2017-02-27 02:50:00,34.4,22.0,30.15,SSW,212,5.0,11.0,62,0.00,,,0.00,weatherlink.com 1.10,2017-02-27 07:50:00,
2017-02-27 03:05:00,34.7,22.0,30.16,SSW,194,8.0,10.0,61,0.00,,,0.00,weatherlink.com 1.10,2017-02-27 08:05:00,
2017-02-27 03:20:00,34.7,22.0,30.15,South,184,4.0,12.0,61,0.00,,,0.00,weatherlink.com 1.10,2017-02-27 08:20:00,
2017-02-27 03:35:00,34.6,22.0,30.16,South,173,6.0,11.0,61,0.00,,,0.00,weatherlink.com 1.10,2017-02-27 08:35:00,
2017-02-27 03:50:00,34.7,22.0,30.16,SSW,211,4.0,11.0,61,0.00,,,0.00,weatherlink.com 1.10,2017-02-27 08:50:00,
2017-02-27 04:05:00,34.7,22.0,30.17,South,182,5.0,10.0,60,0.00,,,0.00,weatherlink.com 1.10,2017-02-27 09:05:00,
2017-02-27 04:20:00,34.8,22.0,30.17,South,181,6.0,11.0,60,0.00,,,0.00,weatherlink.com 1.10,2017-02-27 09:20:00,
2017-02-27 04:35:00,34.7,22.0,30.18,South,171,11.0,11.0,60,0.00,,,0.00,weatherlink.com 1.10,2017-02-27 09:35:00,
2017-02-27 04:50:00,34.7,22.0,30.18,SSE,168,6.0,11.0,60,0.00,,,0.00,weatherlink.com 1.10,2017-02-27 09:50:00,
2017-02-27 05:05:00,35.0,21.0,30.18,SSW,198,9.0,15.0,58,0.00,,,0.00,weatherlink.com 1.10,2017-02-27 10:05:00,
2017-02-27 05:20:00,35.7,21.0,30.18,South,182,7.0,13.0,56,0.00,,,0.00,weatherlink.com 1.10,2017-02-27 10:20:00,